TimeCDT,TemperatureF,Dew PointF,Humidity,Sea Level PressureIn,VisibilityMPH,Wind Direction,Wind SpeedMPH,Gust SpeedMPH,PrecipitationIn,Events,Conditions,WindDirDegrees,DateUTC
12:15 AM,55.4,37.4,51,29.71,10.0,SW,15.0,-,N/A,,Scattered Clouds,220,2012-10-19 05:15:00
12:35 AM,55.4,37.4,51,29.71,10.0,SW,13.8,-,N/A,,Partly Cloudy,220,2012-10-19 05:35:00
1:15 AM,53.6,37.4,54,29.70,10.0,SW,12.7,-,N/A,,Clear,220,2012-10-19 06:15:00
1:35 AM,51.8,37.4,58,29.70,10.0,SW,10.4,-,N/A,,Clear,220,2012-10-19 06:35:00
1:55 AM,53.6,33.8,47,29.71,10.0,WSW,11.5,-,N/A,,Clear,240,2012-10-19 06:55:00
2:16 AM,55.4,32.0,41,29.70,10.0,WSW,12.7,17.3,N/A,,Clear,250,2012-10-19 07:16:00
2:35 AM,51.8,35.6,54,29.71,10.0,SW,10.4,-,N/A,,Clear,220,2012-10-19 07:35:00
3:35 AM,48.2,37.4,66,29.70,10.0,SSW,9.2,-,N/A,,Clear,210,2012-10-19 08:35:00
3:55 AM,48.2,37.4,66,29.71,10.0,SW,8.1,-,N/A,,Clear,220,2012-10-19 08:55:00
4:15 AM,50.0,37.4,62,29.70,10.0,SW,8.1,-,N/A,,Clear,220,2012-10-19 09:15:00
4:55 AM,50.0,37.4,62,29.71,10.0,SW,9.2,-,N/A,,Clear,220,2012-10-19 09:55:00
5:15 AM,50.0,37.4,62,29.72,10.0,SW,10.4,-,N/A,,Clear,220,2012-10-19 10:15:00
5:35 AM,48.2,37.4,66,29.71,10.0,SW,8.1,-,N/A,,Clear,230,2012-10-19 10:35:00
5:55 AM,48.2,37.4,66,29.71,10.0,SW,8.1,-,N/A,,Clear,230,2012-10-19 10:55:00
6:15 AM,50.0,37.4,62,29.71,10.0,SW,9.2,-,N/A,,Clear,230,2012-10-19 11:15:00
6:35 AM,48.2,37.4,66,29.71,10.0,SW,10.4,-,N/A,,Clear,220,2012-10-19 11:35:00
7:15 AM,48.2,37.4,66,29.71,10.0,SW,6.9,-,N/A,,Clear,220,2012-10-19 12:15:00
7:35 AM,48.2,37.4,66,29.70,10.0,SW,9.2,-,N/A,,Clear,220,2012-10-19 12:35:00
7:55 AM,48.2,37.4,66,29.71,10.0,SW,8.1,-,N/A,,Clear,230,2012-10-19 12:55:00
8:16 AM,50.0,37.4,62,29.72,10.0,WSW,8.1,-,N/A,,Partly Cloudy,240,2012-10-19 13:16:00
8:35 AM,51.8,39.2,62,29.71,10.0,SW,10.4,-,N/A,,Partly Cloudy,230,2012-10-19 13:35:00
8:55 AM,51.8,39.2,62,29.71,10.0,SW,11.5,-,N/A,,Scattered Clouds,230,2012-10-19 13:55:00
9:15 AM,53.6,39.2,58,29.72,10.0,West,12.7,-,N/A,,Scattered Clouds,260,2012-10-19 14:15:00
9:35 AM,57.2,37.4,48,29.72,10.0,West,17.3,24.2,N/A,,Partly Cloudy,270,2012-10-19 14:35:00
9:55 AM,57.2,37.4,48,29.72,10.0,West,23.0,27.6,N/A,,Partly Cloudy,280,2012-10-19 14:55:00
10:15 AM,59.0,37.4,45,29.72,10.0,West,17.3,-,N/A,,Clear,280,2012-10-19 15:15:00
11:15 AM,60.8,37.4,42,29.74,10.0,WNW,21.9,27.6,N/A,,Partly Cloudy,300,2012-10-19 16:15:00
11:36 AM,62.6,37.4,39,29.74,10.0,WNW,19.6,25.3,N/A,,Clear,290,2012-10-19 16:36:00
11:55 AM,62.6,39.2,42,29.75,10.0,West,20.7,27.6,N/A,,Scattered Clouds,280,2012-10-19 16:55:00
12:15 PM,62.6,37.4,39,29.75,10.0,WNW,20.7,26.5,N/A,,Mostly Cloudy,300,2012-10-19 17:15:00
12:35 PM,62.6,37.4,39,29.76,10.0,WNW,18.4,26.5,N/A,,Overcast,290,2012-10-19 17:35:00
12:55 PM,60.8,37.4,42,29.76,10.0,West,16.1,-,N/A,,Overcast,280,2012-10-19 17:55:00
1:15 PM,60.8,37.4,42,29.76,10.0,West,18.4,24.2,N/A,,Overcast,280,2012-10-19 18:15:00
1:55 PM,60.8,37.4,42,29.77,10.0,WNW,17.3,28.8,N/A,,Overcast,290,2012-10-19 18:55:00
2:15 PM,60.8,37.4,42,29.77,10.0,WNW,17.3,25.3,N/A,,Overcast,290,2012-10-19 19:15:00
2:35 PM,62.6,39.2,42,29.77,10.0,WNW,18.4,24.2,N/A,,Overcast,290,2012-10-19 19:35:00
2:55 PM,-9999,-9999,N/A,29.77,10.0,WNW,21.9,31.1,N/A,,Overcast,300,2012-10-19 19:55:00
3:35 PM,60.8,39.2,45,29.79,10.0,WNW,16.1,24.2,N/A,,Overcast,290,2012-10-19 20:35:00
4:35 PM,59.0,39.2,48,29.80,10.0,West,18.4,-,N/A,,Overcast,280,2012-10-19 21:35:00
4:55 PM,59.0,39.2,48,29.81,10.0,WNW,19.6,-,N/A,,Overcast,290,2012-10-19 21:55:00
5:35 PM,57.2,39.2,51,29.82,10.0,NW,13.8,-,N/A,,Mostly Cloudy,310,2012-10-19 22:35:00
5:55 PM,57.2,39.2,51,29.82,10.0,NW,11.5,-,N/A,,Overcast,310,2012-10-19 22:55:00
6:15 PM,55.4,39.2,54,29.82,10.0,NW,8.1,-,N/A,,Scattered Clouds,310,2012-10-19 23:15:00
6:35 PM,53.6,41.0,62,29.83,10.0,WNW,3.5,-,N/A,,Clear,300,2012-10-19 23:35:00
6:55 PM,55.4,39.2,54,29.83,10.0,WNW,3.5,-,N/A,,Mostly Cloudy,300,2012-10-19 23:55:00
7:15 PM,53.6,42.8,67,29.84,10.0,NW,3.5,-,N/A,,Overcast,320,2012-10-20 00:15:00
7:36 PM,53.6,41.0,62,29.84,10.0,Calm,Calm,-,N/A,,Overcast,0,2012-10-20 00:36:00
7:55 PM,55.4,42.8,63,29.85,10.0,Calm,Calm,-,N/A,,Overcast,0,2012-10-20 00:55:00
8:15 PM,55.4,41.0,58,29.86,10.0,West,3.5,-,N/A,,Overcast,260,2012-10-20 01:15:00
8:55 PM,53.6,42.8,67,29.86,10.0,NNW,5.8,-,N/A,,Overcast,330,2012-10-20 01:55:00
9:15 PM,53.6,41.0,62,29.86,10.0,Calm,Calm,-,N/A,,Overcast,0,2012-10-20 02:15:00
9:35 PM,55.4,41.0,58,29.86,10.0,West,3.5,-,N/A,,Overcast,260,2012-10-20 02:35:00
9:55 PM,51.8,42.8,71,29.87,10.0,SW,4.6,-,N/A,,Scattered Clouds,230,2012-10-20 02:55:00
10:15 PM,51.8,42.8,71,29.87,10.0,SW,5.8,-,N/A,,Clear,230,2012-10-20 03:15:00
10:35 PM,51.8,42.8,71,29.87,10.0,SW,5.8,-,N/A,,Clear,230,2012-10-20 03:35:00
11:15 PM,50.0,42.8,76,29.87,10.0,WSW,4.6,-,N/A,,Clear,240,2012-10-20 04:15:00
11:35 PM,48.2,42.8,82,29.86,10.0,WSW,5.8,-,N/A,,Clear,240,2012-10-20 04:35:00